Miscellaneous Local Product
Issued by NWS North Platte, NE

Home | Current Version | Previous Version | Text Only | Print | Product List | Glossary On
Versions: 1 2 3 4 5 6 7 8 9 10 11 12 13 14 15 16 17 18 19 20 21 22 23 24 25 26 27 28 29 30 31 32 33 34 35 36 37 38 39 40 41 42 43 44 45 46 47 48 49 50
000
AXUS43 KLBF 041110
MISLBF


WESTERN AND NORTH CENTRAL NEBRASKA HOURLY WEATHER ROUNDUP
NATIONAL WEATHER SERVICE NORTH PLATTE NE
600 AM CDT TUE AUG 04 2015

***STATIONS NOT REPORTING VARIABLES SUCH AS SKY/WEATHER OR
PRESSURE ARE PROVIDED BY THE NEBRASKA DEPARTMENT OF
ROADS...RAWS...AND APRS NETWORKS...AND ARE NOT UNDER
NATIONAL WEATHER SERVICE QUALITY CONTROL***

...OBSERVATIONS IN AND NEAR THE EASTERN PANHANDLE OF NEBRASKA...

CITY           SKY/WX    TMP DP  RH WIND       PRES   REMARKS
PINE RIDGE     MOCLDY    65  61  87 E12       29.94R
CHADRON        CLEAR     60  56  86 SE5       29.94R
ALLIANCE       CLEAR     54  51  90 S6        29.95R
SIDNEY         CLEAR     55  50  83 SW6       29.97F
BIG SPRINGS      N/A     60  57  89 NE3         N/A
$$

...OBSERVATIONS IN NORTH CENTRAL NEBRASKA...

CITY           SKY/WX    TMP DP  RH WIND       PRES   REMARKS
THEDFORD       HVY RAIN  66  65  94 E10G21    30.02R
AINSWORTH      MOCLDY    65  60  82 E10       30.03R THUNDER
O`NEILL        TSTM      64  64  97 SE9       30.00F
ORD            CLOUDY    70  61  73 E9        29.96S
BROKEN BOW     CLOUDY    69  65  86 E14G22    29.98R
SPRINGVIEW       N/A     63  60  90 NE3         N/A
CHAMBERS         N/A     62  61  96 E3          N/A
EWING            N/A     63  61  92 CALM        N/A
$$

...OBSERVATIONS IN SOUTHWEST NEBRASKA AND FAR NORTHEAST COLORADO...

CITY           SKY/WX    TMP DP  RH WIND       PRES   REMARKS
WRAY           FAIR      57  53  85 W3        29.95F
HOLYOKE        FAIR      59  52  77 CALM      29.95F
IMPERIAL       FOG       66  65  96 CALM      29.94R VSB 1/4
OGALLALA       CLOUDY    67  66  99 CALM      29.95R FOG
NORTH PLATTE   CLOUDY    66  66 100 E7        29.95R FOG
MCCOOK         FOG       67  67 100 NE5       29.91R VSB 1/4
LEXINGTON      CLOUDY    69  68  95 E9        29.94R FOG
PAXTON           N/A     69  67  94 SE3         N/A
BRADY            N/A     67  65  94 NE3         N/A
CALLAWAY         N/A     67  66  98 E10         N/A
$$

...NORTH PLATTE AREA...

CITY           SKY/WX    TMP DP  RH WIND       PRES   REMARKS
AIRPORT        CLOUDY    66  66 100 E7        29.95R FOG
DOWNTOWN         N/A     67  65  95 CALM        N/A
SANDRIDGE        N/A     67  65  94 CALM        N/A
HILLCREST        N/A     66  66 100 E8          N/A
$$

...SOME WEATHER OBSERVATIONS FROM AROUND THE REGION...

CITY           SKY/WX    TMP DP  RH WIND       PRES   REMARKS
DENVER         PTCLDY    61  50  67 S6        30.03F
LARAMIE        CLOUDY    55  48  77 SW10      30.15F
CHEYENNE       PTCLDY    64  46  52 W14G25    30.08R
SCOTTSBLUFF    CLEAR     60  53  77 SE5       29.95R
RAPID CITY     MOCLDY    65  58  78 SW6       29.95R
PIERRE         CLOUDY    65  58  78 SE5       29.96S
WINNER         LGT RAIN  65  62  90 SW6       30.02R
SIOUX FALLS    CLOUDY    59  54  83 E3        30.01R
OMAHA          CLOUDY    69  65  86 CALM      29.99R
GRAND ISLAND   CLOUDY    68  64  87 NE15      29.99R
KANSAS CITY    MOCLDY    72  67  84 E10       29.97R
WICHITA        CLOUDY    74  68  81 SW3       29.94R
HAYS           PTCLDY    70  61  73 CALM      29.92R
LIBERAL        CLOUDY    70  63  78 S12       29.94F
GOODLAND       MOCLDY    67  61  81 SW8       29.96S
$$



USA.gov is the U.S. government's official web portal to all federal, state and local government web resources and services.